FW1255 Weather Reports


Display with metric or nautical units.
time (UTC)temp
F
wind
direction
speed
MPH
gust
MPH
rain 1hr
in
rain 24hr
in
rain mn
in
humidity
%
barometer
mb
20260507031554 46 5 2.0 4.0 0.00 0.00 0.00 50 1015.2
20260507030101 45 355 0.0 3.0 0.00 0.00 0.00 49 1015.3
20260507024557 46 333 0.0 0.0 0.00 0.00 0.00 47 1015.3
20260507023054 47 333 0.0 3.0 0.00 0.00 0.00 46 1015.3
20260507021556 48 333 2.0 3.0 0.00 0.00 0.00 45 1015.3
20260507020052 48 329 2.0 5.0 0.00 0.00 0.00 45 1015.3
20260507014554 48 300 2.0 3.0 0.00 0.00 0.00 44 1015.1
20260507013059 49 300 2.0 5.0 0.00 0.00 0.00 43 1015.1
20260507011553 51 302 5.0 12.0 0.00 0.00 0.00 40 1015.1
20260507010049 51 307 7.0 13.0 0.00 0.00 0.00 40 1015.0
20260507004548 52 313 8.0 15.0 0.00 0.00 0.00 39 1015.0
20260507003048 53 313 10.0 15.0 0.00 0.00 0.00 38 1015.0
20260507001548 53 325 6.0 13.0 0.00 0.00 0.00 38 1015.1
20260507000052 53 292 9.0 14.0 0.00 0.00 0.00 39 1015.2
20260506234550 53 300 7.0 13.0 0.00 0.00 0.00 39 1015.3
20260506233043 52 312 9.0 15.0 0.00 0.00 0.00 41 1015.4
20260506231545 52 360 11.0 16.0 0.00 0.00 0.00 41 1015.5
20260506230042 52 278 9.0 17.0 0.00 0.00 0.00 41 1015.6
20260506224556 52 315 10.0 15.0 0.00 0.00 0.00 42 1015.7
20260506223042 52 319 11.0 18.0 0.00 0.00 0.00 42 1015.8
20260506221540 52 275 11.0 19.0 0.00 0.00 0.00 42 1016.0
20260506220041 52 229 16.0 21.0 0.00 0.00 0.00 42 1016.1
20260506214546 52 288 16.0 24.0 0.00 0.00 0.00 42 1016.3
20260506213043 52 256 13.0 21.0 0.00 0.00 0.00 42 1016.3
20260506211536 52 360 14.0 21.0 0.00 0.00 0.00 42 1016.5
20260506210040 52 313 16.0 31.0 0.00 0.00 0.00 42 1016.7
20260506204535 52 279 13.0 27.0 0.00 0.00 0.00 42 1016.9
20260506203034 52 284 20.0 25.0 0.00 0.00 0.00 43 1017.1
20260506201532 51 298 12.0 22.0 0.00 0.00 0.00 44 1017.0
20260506200032 50 360 10.0 23.0 0.00 0.00 0.00 45 1017.2
20260506194527 50 305 14.0 20.0 0.00 0.00 0.00 45 1017.5
20260506193026 50 309 13.0 20.0 0.00 0.00 0.00 46 1017.6
20260506191525 49 279 11.0 20.0 0.00 0.00 0.00 46 1017.7
20260506190022 48 360 11.0 21.0 0.00 0.00 0.00 47 1017.8
20260506184526 48 311 16.0 22.0 0.00 0.00 0.00 47 1017.9
20260506183021 48 298 17.0 26.0 0.00 0.00 0.00 47 1017.9
20260506181519 47 340 12.0 26.0 0.00 0.00 0.00 48 1018.1
20260506180024 48 330 17.0 27.0 0.00 0.00 0.00 47 1018.1
20260506174516 46 300 13.0 26.0 0.00 0.00 0.00 49 1018.3
20260506173014 45 311 13.0 21.0 0.00 0.00 0.00 49 1018.4
20260506171514 46 294 18.0 22.0 0.00 0.00 0.00 48 1018.4
20260506170015 46 271 17.0 24.0 0.00 0.00 0.00 49 1018.5
20260506164515 45 304 15.0 25.0 0.00 0.00 0.00 51 1018.5
20260506163011 44 286 16.0 26.0 0.00 0.00 0.00 52 1018.6
20260506161609 45 292 16.0 21.0 0.00 0.00 0.00 51 1018.6
20260506160008 45 316 13.0 25.0 0.00 0.00 0.00 52 1018.5
20260506154506 45 303 15.0 22.0 0.00 0.00 0.00 52 1018.4
20260506153003 44 360 12.0 19.0 0.00 0.00 0.00 53 1018.4
20260506151600 44 319 13.0 20.0 0.00 0.00 0.00 56 1018.6
20260506150100 43 288 10.0 16.0 0.00 0.00 0.00 57 1018.6
20260506144604 43 307 11.0 17.0 0.00 0.00 0.00 57 1018.5
20260506143054 42 317 9.0 18.0 0.00 0.00 0.00 61 1018.5
20260506141550 42 360 10.0 17.0 0.00 0.00 0.00 62 1018.5
20260506140057 41 313 5.0 13.0 0.00 0.00 0.00 64 1018.4
20260506134542 40 302 2.0 9.0 0.00 0.00 0.00 68 1018.3
20260506133045 38 332 1.0 6.0 0.00 0.00 0.00 70 1018.4
20260506131537 38 298 4.0 9.0 0.00 0.00 0.00 72 1018.4
20260506130032 36 277 4.0 8.0 0.00 0.00 0.00 75 1018.3
20260506124527 36 280 5.0 7.0 0.00 0.00 0.00 76 1018.2
20260506123025 35 240 3.0 5.0 0.00 0.00 0.00 77 1017.9
20260506121522 35 274 1.0 5.0 0.00 0.00 0.00 76 1017.8
20260506120033 35 302 3.0 9.0 0.00 0.00 0.00 77 1017.6
20260506114517 34 302 3.0 5.0 0.00 0.00 0.00 77 1017.4
20260506113015 34 306 1.0 3.0 0.00 0.00 0.00 77 1017.1
20260506111513 34 304 3.0 5.0 0.00 0.00 0.00 76 1017.0
20260506110012 33 292 4.0 5.0 0.00 0.00 0.00 77 1017.0
20260506104511 33 308 2.0 6.0 0.00 0.00 0.00 77 1016.9
20260506103010 33 290 2.0 5.0 0.00 0.00 0.00 77 1016.8
20260506101509 32 298 3.0 7.0 0.00 0.00 0.00 77 1016.7
20260506100007 32 296 2.0 4.0 0.00 0.00 0.00 78 1016.4
20260506094506 30 297 2.0 4.0 0.00 0.00 0.00 78 1016.5
20260506093005 32 360 5.0 6.0 0.00 0.00 0.00 74 1016.5
20260506091503 33 338 0.0 0.0 0.00 0.00 0.00 74 1016.1
20260506090004 31 338 0.0 0.0 0.00 0.00 0.00 75 1016.0
20260506084502 32 338 0.0 2.0 0.00 0.00 0.00 74 1016.0
20260506083000 31 331 2.0 4.0 0.00 0.00 0.00 77 1016.0
20260506081600 31 317 4.0 6.0 0.00 0.00 0.00 74 1016.3
20260506073051 32 323 3.0 4.0 0.00 0.00 0.00 72 1015.6
20260506071547 33 332 2.0 3.0 0.00 0.00 0.00 71 1015.6
20260506061541 35 343 2.0 4.0 0.00 0.00 0.00 69 1015.7
20260506044527 37 344 2.0 4.0 0.00 0.00 0.00 61 1014.9
20260506043026 39 342 3.0 6.0 0.00 0.00 0.00 59 1014.9
20260506041525 41 336 5.0 9.0 0.00 0.00 0.00 57 1015.0
20260506040035 42 346 7.0 9.0 0.00 0.00 0.00 56 1014.9
20260506034526 42 346 8.0 13.0 0.00 0.00 0.00 55 1014.9
20260506033023 43 355 5.0 8.0 0.00 0.00 0.00 55 1014.8